Flag for Norway Weather past 2 weeks in Søgne, Norway

Now
57 °F

Cool.


Feels Like: 57 °F
Forecast: 56 / 64 °F
Wind: 5 mph from West

Location: Oksoy Fyr

Current Time: Jul 8, 2015 at 12:11:15 AM

Latest Report: Jul 7, 2015 at 10:00 PM


Visibility: N/A

Pressure: 29.50 "Hg

Humidity: 95%

Dew point: 56 °F

Location of SøgneLocation

Historic Weather in Søgne — Graph

°F

Søgne temperature yesterday

Maximum temperature yesterday: 59 °F (at 6:00 PM)
Minimum temperature yesterday: 55 °F (at 4:00 AM)
Average temperature yesterday: 57 °F

Past Weeks' High & Low Weather Summary

 TemperatureHumidityPressure
High69 °F (Jul 2, 6:00 PM)98% (Jul 4, 1:00 AM)30.30 "Hg (Jul 4, 1:00 AM)
Low49 °F (Jun 25, 6:00 AM)41% (Jun 24, 5:00 PM)29.50 "Hg (Jul 7, 10:00 PM)
Average59 °F81%29.99 "Hg
* Reported Jun 22 10:00 PM — Jul 7 10:00 PM, Søgne, Weather by CustomWeather, © 2015

Note: Actual official high and low records may vary slightly from our data, if they occured in-between our weather recording intervals... More about our weather records

Advertising

Søgne weather history for previous 24 hours

 ConditionsComfort  
Time TempWeatherWind HumidityBarometerVisibility
10:00 PM
Tue, Jul 7
57 °FCool.5 mph95%29.50 "HgN/A
9:00 PM58 °FCool.6 mph94%29.54 "HgN/A
8:00 PM58 °FCool.5 mph93%29.57 "HgN/A
7:00 PM59 °FCool.5 mph92%29.59 "HgN/A
6:00 PM59 °FCool.3 mph93%29.59 "HgN/A
5:00 PM59 °FCool.2 mph93%29.65 "HgN/A
4:00 PM58 °FCool.2 mph93%29.69 "HgN/A
3:00 PM57 °FCool.3 mph92%29.71 "HgN/A
2:00 PM57 °FCool.5 mph90%29.73 "HgN/A
1:00 PM58 °FCool.7 mph83%29.76 "HgN/A
12:00 PM57 °FCool.8 mph82%29.76 "HgN/A
11:00 AM57 °FCool.9 mph81%29.77 "HgN/A
10:00 AM56 °FCool.9 mph79%29.78 "HgN/A
9:00 AM56 °FCool.8 mph78%29.78 "HgN/A
8:00 AM56 °FCool.8 mph78%29.79 "HgN/A
7:00 AM55 °FCool.9 mph78%29.80 "HgN/A
6:00 AM55 °FCool.10 mph80%29.80 "HgN/A
4:00 AM55 °FCool.9 mph78%29.82 "HgN/A
3:00 AM55 °FCool.10 mph79%29.82 "HgN/A
2:00 AM55 °FCool.10 mph79%29.82 "HgN/A
1:00 AM56 °FCool.13 mph79%29.83 "HgN/A
12:00 AM56 °FCool.13 mph79%29.84 "HgN/A
Weather by CustomWeather, © 2015

See weather overviewHow to use our weather pages